Farmington, NM

2:28 AM MST on November 18, 2017 (GMT -0700)
Four Corners Regional

Weather History for KFMN - May, 2013

Change the Weather History Date:

Thursday, May 9, 2013

  Actual Average Record
Temperature  
Mean Temperature 50 °F -  
Max Temperature 66 °F 73 °F 86 °F (1989)
Min Temperature 34 °F 40 °F 32 °F (1981)
Degree Days  
Heating Degree Days 15    
Moisture  
Dew Point 31 °F    
Average Humidity 49    
Maximum Humidity 79    
Minimum Humidity 20    
Precipitation  
Precipitation 0.00 in - - ()
Sea Level Pressure  
Sea Level Pressure 30.04 in    
Wind  
Wind Speed 6 mph (NNE)    
Max Wind Speed 14 mph    
Max Gust Speed 21 mph    
Visibility 10 miles    
Events      
Averages and records for this station are not official NWS values.
T = Trace of Precipitation, MM = Missing Value Source: NWS Daily Summary

Daily Weather History Graph

Daily Weather History Graph

Search for Another Location

Airport or City:

Trip Planner

Search our weather history database for the weather conditions in past years. The results will help you decide how hot, cold, wet, or windy it might be!

Date:

Astronomy

May. 09, 2013 Rise Set
Actual Time 6:10 AM MDT 8:08 PM MDT
Civil Twilight 5:42 AM MDT 8:37 PM MDT
Nautical Twilight 5:07 AM MDT 9:11 PM MDT
Astronomical Twilight 4:30 AM MDT 9:49 PM MDT
Moon 5:56 AM MDT (5/9) 8:06 PM MDT (5/9)
Length of Visible Light 14h 55m
Length of Day
13h 58m
Waning Crescent, 0% of the Moon is Illuminated
May 9
Waning Crescent
May 9
New
May 17
First Quarter
May 24
Full
May 31
Last Quarter

Hourly Weather History & Observations

Time (MDT) Temp. Windchill Dew Point Humidity Pressure Visibility Wind Dir Wind Speed Gust Speed Precip Events Conditions
12:53 AM 41.0 °F 37.1 °F 28.9 °F 62% 30.01 in 10.0 mi North 5.8 mph - N/A   Clear
1:53 AM 39.0 °F 34.8 °F 28.0 °F 65% 30.02 in 10.0 mi NNE 5.8 mph - N/A   Clear
2:53 AM 37.9 °F 33.5 °F 28.0 °F 68% 30.02 in 10.0 mi NNE 5.8 mph - N/A   Clear
3:53 AM 36.0 °F 33.3 °F 28.0 °F 73% 30.02 in 10.0 mi NNE 3.5 mph - N/A   Clear
4:53 AM 35.1 °F - 28.0 °F 76% 30.02 in 10.0 mi Calm Calm - N/A   Clear
5:53 AM 34.0 °F 28.8 °F 28.0 °F 79% 30.03 in 10.0 mi NE 5.8 mph - N/A   Clear
6:53 AM 37.9 °F 32.1 °F 28.9 °F 70% 30.04 in 10.0 mi East 8.1 mph - N/A   Clear
7:53 AM 41.0 °F 37.1 °F 28.9 °F 62% 30.05 in 10.0 mi East 5.8 mph - N/A   Clear
8:53 AM 45.0 °F 42.6 °F 30.9 °F 58% 30.06 in 10.0 mi ESE 4.6 mph - N/A   Mostly Cloudy
9:53 AM 50.0 °F - 30.9 °F 48% 30.05 in 10.0 mi East 5.8 mph - N/A   Partly Cloudy
10:53 AM 55.0 °F - 32.0 °F 42% 30.06 in 10.0 mi Calm Calm - N/A   Overcast
11:53 AM 57.9 °F - 33.1 °F 39% 30.04 in 10.0 mi NE 5.8 mph - N/A   Partly Cloudy
12:53 PM 61.0 °F - 32.0 °F 34% 30.04 in 10.0 mi NNW 5.8 mph - N/A   Scattered Clouds
1:53 PM 60.1 °F - 33.1 °F 36% 30.05 in 10.0 mi WNW 5.8 mph - 0.00 in   Mostly Cloudy
2:53 PM 64.0 °F - 33.1 °F 31% 30.02 in 10.0 mi NNW 10.4 mph 17.3 mph N/A   Mostly Cloudy
3:53 PM 64.9 °F - 30.0 °F 27% 30.01 in 10.0 mi WNW 12.7 mph 19.6 mph N/A   Scattered Clouds
4:53 PM 63.0 °F - 30.0 °F 29% 30.01 in 10.0 mi West 8.1 mph - N/A   Scattered Clouds
5:53 PM 62.1 °F - 32.0 °F 32% 30.02 in 10.0 mi WNW 6.9 mph - N/A   Mostly Cloudy
6:53 PM 60.1 °F - 33.1 °F 36% 30.02 in 10.0 mi North 13.8 mph 20.7 mph N/A   Overcast
8:53 PM 55.0 °F - 36.0 °F 49% 30.07 in 10.0 mi SSE 6.9 mph - 0.00 in   Mostly Cloudy
9:53 PM 51.1 °F - 36.0 °F 56% 30.09 in 10.0 mi Calm Calm - N/A   Clear
11:53 PM 45.0 °F 39.7 °F 35.1 °F 68% 30.09 in 10.0 mi North 10.4 mph - N/A   Clear